www.pogodaiklimat.ru

Погода и климат >> Архив погоды >> Мьянма >> Мейтхила


ПОГОДА в Мейтхиле

  • Прогноз погоды в Мейтхиле
  • Монитор погоды в Мейтхиле

АРХИВ ПОГОДЫ в Мейтхиле

Время (UTC), дата Ветер
(напр.,м/с)
 
Видим.   Явления Облачность Т
(С)
Тd
(С)
f
(%)
Тe
(С)
Тes
(С)
Комфортность P
(гПа)
Po
(гПа)
Тmin
(С)
Tmax
(С)
R
(мм)
R24
(мм)
S
(см)
06 12.06 ЮЗ 1 7000 м 9/5 300 м
[Cb cap Ac und]
+33.0 +25.8 66 +48 +54 опасность
перегрева
1003.1 978.8
09 12.06 штиль 0 6000 м 9/5 300 м
[Cb cap Ac und]
+35.0 +25.4 58 +50 +53 опасность
перегрева
1002.7 978.5
12 12.06 Ю 2 5000 м {гроза, дождь} 10/6 300 м
[Cb cap Ac As]
+26.0 +26.0 100 +39 +39 очень
душно
1002.1 977.2 +35.0 20
00 13.06 штиль 0 5000 м 10/6 300 м
[Cu Sc Ac As]
+25.0 +25.0 100 +36 +36 очень
душно
1002.6 977.6 +23.3
03 13.06 штиль 0 4000 м слаб. морось {дождь} 10/6 300 м
[Cb cap Ac As]
+25.0 +25.0 100 +36 +38 очень
душно
1004.5 979.5
06 13.06 Ю 4 6000 м {дождь, морось} 10/8 300 м
[Cb cap Ac As]
+27.0 +25.6 92 +40 +41 очень
душно
1003.3 978.5
09 13.06 Ю 2 6000 м 9/6 300 м
[Cb cap Ac As]
+28.0 +25.0 84 +40 +42 очень
душно
1002.6 977.9
12 13.06 Ю 3 5000 м 10/6 300 м
[Cb cap Ac As]
+27.0 +25.6 92 +40 +40 очень
душно
1000.4 975.7 +28.0 7
00 14.06 Ю 3 5000 м 10/6 200 м
[Frnb Ac und]
+24.0 +22.6 92 +31 +32 очень
душно
1001.7 976.7 +23.3
03 14.06 Ю 2 4000 м слаб. морось 10/6 200 м
[Frnb Ac As]
+25.0 +23.3 90 +33 +35 очень
душно
1004.7 979.7
06 14.06 Ю 4 6000 м {морось} 10/8 300 м
[Cb cap Ac und]
+28.0 +25.0 84 +40 +41 очень
душно
1003.9 979.1
09 14.06 Ю 3 6000 м {дождь} 9/6 300 м
[Cb cap Ac und]
+29.0 +25.9 83 +43 +45 опасность
перегрева
1001.5 976.9
12 14.06 Ю 2 6000 м 8/6 300 м
[Cb cap Ac und]
+29.0 +24.8 78 +41 +41 опасность
перегрева
1000.6 976.0 +29.0 3
00 15.06 Ю 3 5000 м 10/6 300 м
[Sc Ac und]
+25.0 +23.3 90 +33 +34 очень
душно
1002.0 977.0 +24.4
03 15.06 Ю 3 5000 м 8/6 300 м
[Sc Ac und]
+27.0 +25.6 92 +40 +43 очень
душно
1005.2 980.3
06 15.06 Ю 4 6000 м 10/6 300 м
[Cb cap Ac und]
+28.0 +25.0 84 +40 +42 очень
душно
1004.3 979.5
09 15.06 Ю 2 6000 м 10/6 300 м
[Cb cap Ac und]
+30.0 +26.6 82 +46 +48 опасность
перегрева
1001.8 977.3
12 15.06 Ю 2 5000 м 9/6 300 м
[Cb cap Ac und]
+28.0 +25.0 84 +40 +40 очень
душно
1000.9 976.2 +30.0
00 16.06 Ю 3 5000 м 10/6 200 м
[Frnb Ac As]
+25.0 +25.0 100 +36 +36 очень
душно
1002.9 977.9 +23.9 10
03 16.06 Ю 3 6000 м 8/5 600 м
[Sc Ac und Ci fib]
+28.0 +25.0 84 +40 +45 очень
душно
1005.1 980.3
06 16.06 Ю 4 6000 м 9/6 300 м
[Cb cap Ac und]
+30.0 +25.3 76 +44 +47 опасность
перегрева
1003.6 979.0
09 16.06 Ю 3 6000 м 9/6 300 м
[Cb cap Ac und]
+31.0 +26.7 78 +48 +50 опасность
перегрева
1001.5 977.0
12 16.06 Ю 2 6000 м 8/4 600 м
[Cb cap Ac und Cs]
+30.0 +25.3 76 +44 +44 опасность
перегрева
1000.8 976.3 +31.3
00 17.06 Ю 2 5000 м 8/5 300 м
[Sc Ac und]
+25.0 +23.3 90 +33 +34 очень
душно
1002.5 977.5 +24.4
03 17.06 Ю 3 6000 м 9/5 300 м
[Sc Ac und]
+28.0 +25.0 84 +40 +43 очень
душно
1004.1 979.3
06 17.06 Ю 2 6000 м 9/5 300 м
[Cb cap Ac und]
+32.0 +26.5 73 +49 +54 опасность
перегрева
1002.4 978.0
09 17.06 Ю 2 6000 м 9/6 300 м
[Cb cap Ac und]
+33.0 +24.5 61 +46 +48 опасность
перегрева
1000.2 975.9
12 17.06 Ю 2 6000 м 8/5 300 м
[Cb cap Ac und Ci fib]
+32.0 +24.8 66 +45 +45 опасность
перегрева
999.6 975.3 +33.5
00 18.06 Ю 1 5000 м 9/5 300 м
[Sc Ac und]
+26.0 +24.6 92 +37 +37 очень
душно
1003.6 978.7 +25.0
03 18.06 Ю 3 6000 м 8/6 300 м
[Sc Ac und]
+28.0 +25.0 84 +40 +44 очень
душно
1004.4 979.6
06 18.06 Ю 3 8000 м 8/8 300 м
[Cu Sc]
+33.0 +25.8 66 +48 +52 опасность
перегрева
1001.6 977.3
09 18.06 Ю 2 8000 м 8/8 300 м
[Cb cap]
+33.0 +25.8 66 +48 +50 опасность
перегрева
999.2 975.0
12 18.06 Ю 3 6000 м 9/6 300 м
[Cb cap Ac und]
+31.0 +23.7 65 +42 +42 опасность
перегрева
999.1 974.7 +34.0
00 19.06 Ю 2 5000 м 9/5 300 м
[Sc Ac und]
+26.0 +24.6 92 +37 +37 очень
душно
1002.3 977.4 +25.6
03 19.06 Ю 4 6000 м 10/6 300 м
[Sc Ac und]
+28.0 +23.3 76 +38 +39 очень
душно
1004.4 979.6

 

Местоположение метеостанции Мейтхила (Мьянма): широта 20.83 долгота 95.83 высота над уровнем моря 220 м.

В архиве по умолчанию представлена погода в Мейтхиле за последнюю неделю. Архивные данные за месяц целиком и за предыдущие месяцы, начиная с января 2011 года, Вы можете получить, выбрав интересующий диапазон дат из раскрывающегося списка и нажав кнопку "Ввод!".


*Определитесь, кто Вы:
робот инопланетянин человек

Внимание! Время в таблицах - всемирное. Для получения местного времени необходимо прибавить поправку, которая равна 6.5 ч.

Смотрите также архив погоды в соседних городах и на ближайших метеорологических станциях:

Погода в Ньянг-У (Мьянма) (103 км)
Погода в Чау (Мьянма) (105 км)
Погода в Сикайне (Мьянма) (118 км)
Погода в Магуэе (Мьянма) (119 км)
Погода в Минбу (Мьянма) (123 км)
Погода в Таунджи (Мьянма) (127 км)
Погода в Пьинмане (Мьянма) (130 км)
Погода в Мандалае (Мьянма) (131 км)
Погода в Мемьо (Мьянма) (149 км)
Погода в Моунъюа (Мьянма) (159 км)

Пояснения к столбцам:

Ветер - указаны скорость ветра в м/с - средняя за 10 мин, порывы в срок и между сроками (в фигурных скобках) и направление, откуда дует ветер: С - северный, СВ - северо-восточный, В - восточный, ЮВ - юго-восточный, Ю - южный, ЮЗ - юго-западный, З - западный, СЗ - северо-западный.
Видимость - горизонтальная дальность видимости в метрах или километрах. При видимости от 1 до 10 км при отсутствии осадков обычно наблюдается дымка, при ухудшении видимости до 1 км и менее - туман. В сухую погоду видимость может ухудшаться дымом, пылью или мглою.
Явления - указаны атмосферные явления, наблюдавшиеся в срок или в последний час перед сроком; фигурными скобками обозначены явления, наблюдавшиеся между сроками (за 1-3 часа до срока); квадратными скобками обозначены град или гололедные отложения с указанием их диаметра в мм.
Облачность - указаны через наклонную черту общая и нижняя облачность в баллах и высота нижней границы облаков в метрах; квадратными скобками обозначены формы облаков: Ci - перистые, Cs - перисто-слоистые, Cc - перисто-кучевые, Ac - высококучевые, As - высокослоистые, Sc - слоисто-кучевые, Ns - слоисто-дождевые, Cu - кучевые, Cb - кучево-дождевые. Подробнее классификацию облаков см. в Атласе облаков (PDF).
T - Температура воздуха - температура, измеренная на высоте 2 м над землей.
Td - Температура точки росы - температура, при понижении до которой содержащийся в воздухе водяной пар достигнет насыщения.
f - Относительная влажность воздуха - влажноcть воздуха, измеренная на высоте 2 м над землей.
Te - Эффективная температура - температура, которую ощущает одетый по сезону человек в тени. Характеристика душности погоды. При расчете учитывается влияние влажности воздуха и скорости ветра на теплоощущения человека.
Tes - Эффективная температура на солнце - температура, которую ощущает человек, с поправкой на солнечный нагрев. Характеристика знойности погоды. Зависит от высоты солнца над горизонтом, облачности и скорости ветра. Ночью, в пасмурную погоду, а также при ветре 12 м/с и более поправка равна нулю.
P - Атмосферное давление - приведенное к уровню моря атмосферное давление.
Po - Атмосферное давление - измеренное на уровне метеостанции атмосферное давление.
Tmin - Минимальная температура - минимум температуры воздуха на высоте 2 м над землей.
Tmax - Максимальная температура - максимум температуры воздуха на высоте 2 м над землей.
R - Количество осадков - Количество выпавших осадков за период времени, мм. При наведении курсора мыши на число - период времени, за который выпало указанное количество осадков.
R24 - Количество осадков - Количество выпавших осадков за 24 часа, мм.
S - Снежный покров - Высота снежного покрова, см. При наведении курсора мыши на число - состояние снежного покрова и степень покрытия местности в баллах.